Tracking 28790 objects as of 19-Apr-2024
HD Live streaming from Space Station
objects crossing your sky now

NOAA 16 DEB

Track NOAA 16 DEB now!
10-day predictions


NORAD ID: 42385
Int'l Code: 2000-055SD
Perigee: 816.0 km
Apogee: 825.6 km
Inclination: 98.7 °
Period: 101.2 minutes
Semi major axis: 7191 km
RCS: Unknown
Launch date: September 21, 2000
Source: United States (US)
Launch site: AIR FORCE WESTERN TEST RANGE (AFWTR)

Note: This is SATELLITE DEBRIS
Your satellite tracking list
Your tracking list is empty




NASA's NSSDC Master Catalog

Two Line Element Set (TLE):
1 42385U 00055SD  24107.98916750  .00011117  00000-0  49038-2 0  9998
2 42385  98.6885 179.3077 0006629  29.2903 330.8646 14.23462595414527
Source of the keplerian elements: AFSPC